Weather in Gora

Russia / Pskov Oblast     57°05′24″N   29°49′43″E
temp.,
°C
wind,
m/s
gust,
m/s
humid.,
%
clouds,
%
prec.,
mm/h
press.,
hPa
HPBL,
m
9 may, sun
sun900:00+1wnw310955 0.0 1013275
03:000wnw411934 0.0 1015270
06:000w410880 0.0 1017292
09:00+6wnw47650 0.0 1018659
12:00+10wnw574718 0.0 10191948
15:00+12wnw464395 0.0 10202241
18:00+12w335129 0.0 10201920
21:00+6ssw226543 0.0 102219
10 may, mon
mon1000:00+4s377261 0.0 1023116
03:00+5s4127072 0.0 1024250
06:00+6s51362100 0.0 1024384
09:00+9s51264100 0.0 1024529
12:00+14ssw69565 0.0 1024773
15:00+18ssw575368 0.0 10241308
18:00+17s476135 0.0 1024921
21:00+11sse358344 0.0 102578
11 may, tue
tue1100:00+9s3108966 0.0 1026189
03:00+8s398698 0.0 1027153
06:00+7sse3885100 0.0 1027146
09:00+13sse36615 0.0 1028447
12:00+17sse45482 0.0 1027994
15:00+19se45484 0.0 10261146
18:00+19se35575 0.0 1025782
21:00+12se357574 0.0 102572
12 may, wed
wed1200:00+9se39767 0.0 1025158
03:00+8se37845 0.0 1025128
06:00+9ese24895 0.0 102595
09:00+15se35765 0.0 1025460
12:00+19ese466776 0.0 10231248
15:00+20ese35605 0.0 10221252
18:00+19ene47795 0.9 1019660
21:00+16ene51384100 4.3 1016431
13 may, thu
thu1300:00+14e61495100 0.8 1014944
03:00+9se7149146 1.3 1016969
06:00+8ese6118965 0.0 1017934
09:00+9ese5118499 0.0 1016849
12:00+13se6970100 0.1 10151234
15:00+12se698183 1.3 1015979
18:00+13sse4973100 0.4 10141196
21:00+10se388979 0.5 1015219